Find Starlink 3324

NORAD ID: 50814 Int'l Des: 2022-001 Owner: SPXS Country: US Constellation: starlink operational
LEOCIRCULAR

現在のビュー

3D地球を読み込み中...

About Starlink 3324

Starlink 3324 (NORAD 50814) is a starlink constellation satellite (v1.5) launched Jan 6, 2022 by SPXS of US. It operates in LEO, CIRCULAR orbit with a mass of 297.00 kg.

次回通過

Passes for default location (London). Set your location on the main map for personalized predictions.

高度履歴

Loading altitude history...

軌道要素

1 50814U 22001M 26262.89792292 -.00000003 00000-0 11663-4 0 9994
2 50814 53.1619 6.5677 0001124 74.9579 285.1547 15.31701592259872
Epoch: Sep 19, 2026 • Age: 13 hours

現在のステータス

高度 475.6 km
遠地点 / 近地点 N/A
速度 7.63 km/s
衛星直下点 49.23°N, 91.26°W
打ち上げ日 Jan 6, 2022
運用期間 4.7 years
タイプ internet

技術仕様

分類 Payload
質量 297.00 kg
乾燥質量 275.00 kg
長さ 0.20 m
スパン 9.00 m
形状 ? Box + pan
製造者 SPXS
バスタイプ Starlink
フェーズステータス In Orbit
所有者/国 SPXS/US

Most Searched